Location: American Canyon
(38.1966°N, 122.1514°W)
Time: 17:08:52
(UTC+00:00)

FENGYUN 3A - Pass Details

Date: 29 October 2020
Orbit: 824 x 835 km, 98.4° (Epoch: 23 November)

Event Time Altitude Azimuth Distance (km) Brightness Sun altitude
Rises 12:34:16 0° 14° (NNE) 3,392 7.0 -23.7°
Reaches altitude 10° 12:36:39 10° 17° (NNE) 2,454 6.3 -23.2°
Maximum altitude 12:42:05 74° 102° (ESE) 869 3.8 -22.1°
Drops below altitude 10° 12:47:29 10° 188° (S) 2,436 6.0 -21.1°
Sets 12:49:50 0° 190° (S) 3,365 6.7 -20.6°
